www.pogodaiklimat.ru

Погода и климат >> Архив погоды >> Россия >> Якутия >> Нюрба


ПОГОДА в Нюрбе

  • Прогноз погоды в Нюрбе
  • Монитор погоды в Нюрбе
  • Климат города

АРХИВ ПОГОДЫ в Нюрбе

Время (UTC), дата Ветер
(напр.,м/с)
 
Видим.   Явления Облачность Т
(С)
Тd
(С)
f
(%)
Тe
(С)
Тes
(С)
Комфортность P
(гПа)
Po
(гПа)
Тmin
(С)
Tmax
(С)
R
(мм)
R24
(мм)
S
(см)
12 11.12 Ю 3 20 км слабый снег 10/0
[As op]
-34.0 -37.5 70 -44 -44 опасность
обморожения
1044.2 1026.6 -33.1 0.3
15 11.12 Ю 2 50 км в посл. час снег 10/0
[As op]
-36.2 -39.7 70 -45 -45 опасность
обморожения
1043.4 1025.6
18 11.12 ЮВ 1 50 км {снег} 10/0
[As op]
-37.0 -40.4 70 -42 -42 опасность
обморожения
1042.0 1024.2
21 11.12 ЮВ 1 50 км 10/0
[As trans]
-38.6 -42.0 70 -44 -44 опасность
обморожения
1041.3 1023.3
00 12.12 штиль 0 1000 м дымка 4/0
[Ci fib]
-41.6 -44.9 70 -42 -42 опасность
обморожения
1040.1 1022.0 -41.6 0.0 26
03 12.12 штиль 0 500 м туман 3/0
[Ci fib]
-41.2 -44.4 71 -41 -41 опасность
обморожения
1038.2 1020.1
06 12.12 В 1 1000 м дымка {туман} 6/0
[Cs]
-38.0 -41.5 69 -43 -43 опасность
обморожения
1036.4 1018.5
09 12.12 В 1 2000 м слабый снег 10/0
[As op Cs]
-35.8 -39.3 70 -41 -41 опасность
обморожения
1035.4 1017.7
12 12.12 штиль 0 10 км слабый снег 10/0
[As op]
-33.3 -36.2 75 -33 -33 опасность
обморожения
1033.0 1015.6 -33.3 0.2
15 12.12 штиль 0 20 км слабый снег 10/0
[As op]
-35.5 -38.3 75 -36 -36 опасность
обморожения
1031.8 1014.2
18 12.12 В 1 10 км слабый снег 10/0
[As op]
-29.4 -32.4 75 -33 -33 опасность
обморожения
1030.2 1013.1
21 12.12 Ю 1 10 км слабый снег 10/0
[As op]
-25.5 -28.6 75 -29 -29 1028.8 1012.1
00 13.12 Ю 2 10 км слабый снег 10/0
[As op]
-25.1 -28.2 75 -32 -32 опасность
обморожения
1028.8 1012.1 -35.5 1 27
03 13.12 В 1 10 км слабый снег 10/0
[As op]
-24.5 -27.0 80 -28 -28 1028.2 1011.5
06 13.12 штиль 0 20 км слабый снег 10/0
[As op]
-24.1 -26.6 80 -24 -24 1028.7 1012.0
09 13.12 штиль 0 50 км {снег} 10/0
[As trans Cs]
-27.4 -30.4 76 -27 -27 1029.0 1012.1
12 13.12 штиль 0 10 км слабый снег 10/0
[As op Cs]
-30.3 -33.4 74 -30 -30 1029.9 1012.8 -23.8 0.3
15 13.12 штиль 0 50 км {снег} 10/0
[As trans Cs]
-33.1 -36.0 75 -33 -33 опасность
обморожения
1030.2 1012.8
18 13.12 штиль 0 50 км {снег} 10/0
[As trans Cs]
-32.9 -35.7 76 -33 -33 опасность
обморожения
1030.5 1013.1
21 13.12 штиль 0 50 км 10/0
[As trans Cs]
-33.7 -37.5 68 -34 -34 опасность
обморожения
1030.6 1013.2
00 14.12 штиль 0 20 км слабый снег 10/0
[As trans Cs]
-36.0 -39.7 69 -36 -36 опасность
обморожения
1031.1 1013.5 -36.2 0.2 27
03 14.12 штиль 0 20 км {снег} 4/0
[Cs]
-37.5 -41.1 69 -38 -38 опасность
обморожения
1032.3 1014.6 -37.7
06 14.12 ЮЗ 1 10 км {снег} ясно -36.1 -39.7 69 -41 -41 опасность
обморожения
1033.0 1015.4
09 14.12 штиль 0 20 км ясно -39.0 -42.4 70 -39 -39 опасность
обморожения
1033.5 1015.7
12 14.12 З 1 20 км ясно -39.8 -43.3 69 -45 -45 опасность
обморожения
1034.3 1016.4 -36.1
15 14.12 штиль 0 4000 м дымка ясно -41.3 -44.4 72 -41 -41 опасность
обморожения
1034.7 1016.7
18 14.12 З 1 4000 м дымка ясно -42.3 -45.5 71 -48 -48 опасность
обморожения
1035.0 1016.9
21 14.12 штиль 0 4000 м дымка ясно -43.4 -46.8 69 -43 -43 опасность
обморожения
1034.6 1016.5
00 15.12 штиль 0 1000 м дымка ясно -44.0 -47.5 68 -44 -44 опасность
обморожения
1034.7 1016.5 -44.0 27
03 15.12 штиль 0 200 м слабый снег {туман} туман 8/0
[As op]
-41.8 -44.9 72 -42 -42 опасность
обморожения
1034.2 1016.2
06 15.12 З 1 1000 м в посл. час туман {снег} 3/0
[As trans]
-41.5 -44.9 69 -47 -47 опасность
обморожения
1033.7 1015.7
09 15.12 штиль 0 1000 м дымка 3/0
[As trans]
-43.2 -46.8 67 -43 -43 опасность
обморожения
1033.5 1015.4
12 15.12 штиль 0 1000 м дымка ясно -44.1 -47.5 69 -44 -44 опасность
обморожения
1032.9 1014.7 -41.5 0.0
15 15.12 штиль 0 1000 м дымка ясно -45.2 -48.3 71 -45 -45 опасность
обморожения
1032.2 1013.9
18 15.12 штиль 0 1000 м дымка ясно -45.9 -49.2 69 -46 -46 опасность
обморожения
1030.4 1012.1
21 15.12 штиль 0 1000 м дымка ясно -46.6 -50.1 67 -47 -47 опасность
обморожения
1028.8 1010.4
00 16.12 штиль 0 2000 м в посл. час снег 10/0
[Cs]
-44.8 -48.3 68 -45 -45 опасность
обморожения
1027.6 1009.4 -46.6 27
03 16.12 штиль 0 2000 м дымка 10/0
[Cs]
-43.1 -46.1 72 -43 -43 опасность
обморожения
1026.5 1008.5
06 16.12 СВ 1 20 км слабый снег 10/0
[Cs]
-40.9 -44.4 69 -46 -46 опасность
обморожения
1026.0 1008.1
09 16.12 штиль 0 50 км {снег} 4/0
[Ci fib]
-42.4 -45.5 71 -42 -42 опасность
обморожения
1026.8 1008.8
12 16.12 СВ 1 50 км {снег} 4/0
[Ci fib]
-40.3 -43.8 69 -46 -46 опасность
обморожения
1027.4 1009.6 -40.3 0.2
15 16.12 штиль 0 50 км 6/0
[Ci fib]
-42.6 -46.1 68 -43 -43 опасность
обморожения
1028.8 1010.8
18 16.12 штиль 0 50 км 6/0
[Ci fib]
-42.4 -45.5 71 -42 -42 опасность
обморожения
1029.4 1011.4
21 16.12 штиль 0 50 км 6/0
[Ci fib]
-43.8 -46.8 72 -44 -44 опасность
обморожения
1030.4 1012.3
00 17.12 ЮЗ 2 20 км дымка 10/0
[Cs]
-44.4 -47.5 71 -54 -54 опасность
обморожения
1031.3 1013.1 -45.1 27
03 17.12 ЮЗ 2 500 м туман 6/0
[Ci fib]
-42.6 -46.1 68 -52 -52 опасность
обморожения
1031.9 1013.8
06 17.12 ЮЗ 4 1000 м дымка {туман} 10/0
[Ac trans Ci fib]
-40.1 -43.3 71 -54 -54 опасность
обморожения
1031.3 1013.4
09 17.12 ЮЗ 4 2000 м в посл. час снег 10/0
[As op Cs]
-36.6 -40.0 71 -49 -49 опасность
обморожения
1031.3 1013.6
12 17.12 ЮЗ 3 20 км слабый снег 10/0
[As op Cs]
-33.1 -36.0 75 -43 -43 опасность
обморожения
1030.7 1013.3 -33.1 0.3
15 17.12 ЮЗ 4 50 км в посл. час снег 10/0
[As op Cs]
-29.3 -32.4 74 -40 -40 опасность
обморожения
1029.8 1012.7
18 17.12 ЮЗ 4 50 км {снег} 10/0
[As op Cs]
-30.3 -33.4 74 -42 -42 опасность
обморожения
1029.7 1012.5
21 17.12 ЮЗ 4 50 км 10/0
[As trans Cs]
-32.7 -35.7 74 -45 -45 опасность
обморожения
1028.9 1011.6
00 18.12 ЮЗ 4 50 км 6/0
[Ci fib]
-33.3 -36.2 75 -45 -45 опасность
обморожения
1027.8 1010.5 -33.3 0.0 28
03 18.12 ЮЗ 5 20 км 10/0
[As trans Cs]
-33.1 -36.0 75 -46 -46 опасность
обморожения
1026.4 1009.1
06 18.12 ЮЗ 4 50 км 10/0
[As trans Cs]
-33.4 -36.2 76 -45 -45 опасность
обморожения
1024.8 1007.5

 

Местоположение метеостанции Нюрба (Якутия, Россия): широта 63.28 долгота 118.30 высота над уровнем моря 119 м.

В архиве по умолчанию представлена погода в Нюрбе за последнюю неделю. Архивные данные за месяц целиком и за предыдущие месяцы, начиная с января 2011 года, Вы можете получить, выбрав интересующий диапазон дат из раскрывающегося списка и нажав кнопку "Ввод!".

Внимание! Время в таблицах - всемирное. Для получения местного времени необходимо прибавить поправку, которая в Нюрбе равна 9 ч.

Смотрите также архив погоды в соседних городах и на ближайших метеорологических станциях:

Погода в Верхневилюйске (Якутия, Россия) (97 км)
Погода в Чумпуруке (Якутия, Россия) (126 км)
Погода в Сунтаре (Якутия, Россия) (129 км)
Погода в Крестяхе (Якутия, Россия) (159 км)
Погода в Вилюйске (Якутия, Россия) (172 км)
Погода в Мирном (Якутия, Россия) (243 км)
Погода в Килиере (Якутия, Россия) (264 км)
Погода в Дорожном (Якутия, Россия) (265 км)
Погода в Чернышевском (Якутия, Россия) (298 км)
Погода в Эйке (Якутия, Россия) (309 км)

Пояснения к столбцам:

Ветер - указаны скорость ветра в м/с - средняя за 10 мин, порывы в срок и между сроками (в фигурных скобках) и направление, откуда дует ветер: С - северный, СВ - северо-восточный, В - восточный, ЮВ - юго-восточный, Ю - южный, ЮЗ - юго-западный, З - западный, СЗ - северо-западный.
Видимость - горизонтальная дальность видимости в метрах или километрах. При видимости от 1 до 10 км при отсутствии осадков обычно наблюдается дымка, при ухудшении видимости до 1 км и менее - туман. В сухую погоду видимость может ухудшаться дымом, пылью или мглою.
Явления - указаны атмосферные явления, наблюдавшиеся в срок или в последний час перед сроком; фигурными скобками обозначены явления, наблюдавшиеся между сроками (за 1-3 часа до срока); квадратными скобками обозначены град или гололедные отложения с указанием их диаметра в мм.
Облачность - указаны через наклонную черту общая и нижняя облачность в баллах и высота нижней границы облаков в метрах; квадратными скобками обозначены формы облаков: Ci - перистые, Cs - перисто-слоистые, Cc - перисто-кучевые, Ac - высококучевые, As - высокослоистые, Sc - слоисто-кучевые, Ns - слоисто-дождевые, Cu - кучевые, Cb - кучево-дождевые. Подробнее классификацию облаков см. в Атласе облаков (PDF).
T - Температура воздуха - температура, измеренная на высоте 2 м над землей.
Td - Температура точки росы - температура, при понижении до которой содержащийся в воздухе водяной пар достигнет насыщения.
f - Относительная влажность воздуха - влажноcть воздуха, измеренная на высоте 2 м над землей.
Te - Эффективная температура - температура, которую ощущает одетый по сезону человек в тени. Характеристика душности погоды. При расчете учитывается влияние влажности воздуха и скорости ветра на теплоощущения человека.
Tes - Эффективная температура на солнце - температура, которую ощущает человек, с поправкой на солнечный нагрев. Характеристика знойности погоды. Зависит от высоты солнца над горизонтом, облачности и скорости ветра. Ночью, в пасмурную погоду, а также при ветре 12 м/с и более поправка равна нулю.
P - Атмосферное давление - приведенное к уровню моря атмосферное давление.
Po - Атмосферное давление - измеренное на уровне метеостанции атмосферное давление.
Tmin - Минимальная температура - минимум температуры воздуха на высоте 2 м над землей.
Tmax - Максимальная температура - максимум температуры воздуха на высоте 2 м над землей.
R - Количество осадков - Количество выпавших осадков за период времени, мм. При наведении курсора мыши на число - период времени, за который выпало указанное количество осадков.
R24 - Количество осадков - Количество выпавших осадков за 24 часа, мм.
S - Снежный покров - Высота снежного покрова, см. При наведении курсора мыши на число - состояние снежного покрова и степень покрытия местности в баллах.